This is the latest recevied weather packets stored in our database for station/object SQ9NFI-4. If no packets are shown the sender has not sent any weather packets the latest 1 day(s).
| Time | Temp. | Humidity | Pressure | Rain* | Wind** | Luminosity | Snow |
|---|---|---|---|---|---|---|---|
| 1836274690 | 11.67° C | 95% | 1023.3 hPa | - | 0 m/s | - | - |
| 1836274538 | 11.67° C | 95% | 1023.3 hPa | - | 0 m/s | - | - |
| 1836274390 | 12.22° C | 95% | 1023.3 hPa | - | 0 m/s | - | - |
| 1836274239 | 11.67° C | 95% | 1023.3 hPa | - | 0 m/s | - | - |
| 1836274088 | 12.22° C | 95% | 1023.3 hPa | - | 0 m/s | - | - |
| 1778009377 | 14.44° C | 62% | 1008.1 hPa | 0 mm | 0.45 m/s, 332° | 0 W/m² | - |
| 1778003677 | 22.78° C | 24% | 1007.8 hPa | 0 mm | 0.89 m/s, 303° | 7 W/m² | - |
| 1778000377 | 26.11° C | 18% | 1007.8 hPa | 0 mm | 1.79 m/s, 241° | 44 W/m² | - |
| 1778000077 | 26.11° C | 17% | 1007.8 hPa | 0 mm | 5.81 m/s, 190° | 48 W/m² | - |
| 1777999777 | 26.67° C | 18% | 1007.8 hPa | 0 mm | 3.58 m/s, 199° | 49 W/m² | - |
| 1777999477 | 26.67° C | 18% | 1007.8 hPa | 0 mm | 1.79 m/s, 260° | 60 W/m² | - |
| 1777999177 | 26.67° C | 18% | 1007.8 hPa | 0 mm | 2.24 m/s, 321° | 65 W/m² | - |
| 1777998877 | 26.67° C | 18% | 1007.8 hPa | 0 mm | 2.24 m/s, 205° | 75 W/m² | - |
| 1777998577 | 26.67° C | 16% | 1007.8 hPa | 0 mm | 4.92 m/s, 208° | 81 W/m² | - |
| 1777998277 | 27.22° C | 16% | 1007.8 hPa | 0 mm | 2.68 m/s, 300° | 89 W/m² | - |
| 1777997977 | 27.22° C | 14% | 1007.8 hPa | 0 mm | 2.68 m/s, 246° | 100 W/m² | - |
| 1777997677 | 27.78° C | 14% | 1007.8 hPa | 0 mm | 2.68 m/s, 303° | 109 W/m² | - |
| 1777997377 | 27.78° C | 13% | 1007.8 hPa | 0 mm | 6.71 m/s, 192° | 114 W/m² | - |
| 1777997077 | 27.78° C | 13% | 1007.8 hPa | 0 mm | 4.47 m/s, 236° | 127 W/m² | - |
| 1777996777 | 27.78° C | 14% | 1007.8 hPa | 0 mm | 1.79 m/s, 256° | 138 W/m² | - |
| 1777996477 | 27.78° C | 13% | 1007.8 hPa | 0 mm | 3.13 m/s, 207° | 143 W/m² | - |
| 1777996177 | 27.78° C | 14% | 1007.8 hPa | 0 mm | 2.68 m/s, 155° | 161 W/m² | - |
| 1777995877 | 27.78° C | 14% | 1007.8 hPa | 0 mm | 5.81 m/s, 194° | 182 W/m² | - |
| 1777995577 | 28.33° C | 14% | 1007.8 hPa | 0 mm | 5.81 m/s, 243° | 193 W/m² | - |
| 1777995277 | 28.33° C | 17% | 1007.8 hPa | 0 mm | 5.81 m/s, 175° | 208 W/m² | - |
* Rain since midnight (hover to see other rain measurements)
** Current wind speed in m/s (hover to see current wind gust speed)